STARLINK-37251, 68514

Orbit data source: Space-Track

STARLINK-37251, 68514 is a payload satellite owned by SpaceX/Seattle (US) in LEO that was launched on Mon, 30 Mar 2026 UTC via an FALCON 9 launch vehicle from the Air Force Eastern Test Range (AFETR). Payload-class satellites include a variety of spacecraft equipped with specific instruments for various scientific and technological missions. These include communications satellites like Starlink; space stations such as the ISS; scientific satellites like the Hubble; Earth observation satellites from companies like Planet Labs, Umbra, and HawkEye 360; GPS; miniature CubeSats for education and research; and military/defense satellites.

Loading next visibility...
Identifier
68514, 2026-068G
Orbit
LEO
Country
Flag of USUS
Related business
Manufacturer
SpaceX/Seattle
Mission
Operational spacecraft
Bus & Motor
STARLINK V2MO, Unknown motor
Mass
575 kg wet, ~530 kg dry
Launch date (UTC)
2026-03-30 (3 months ago)
Launch vehicle
FALCON 9
Launch site
Air Force Eastern Test Range (AFETR)
Object type
Payload
Rocket body
Debris
Shape & HBR
Unknown shape, 2.5 m
Radar Cross Section
Large (>1 m²)

Expand to show TLE details & history
Last TLE update: 20 hours ago

TLE from 20 hours ago
0 STARLINK-37251
1 68514U 26068G   26171.00471167  .00028651  00000-0  85547-3 0  9993
2 68514  53.1593  12.3534 0001047  90.5159 269.5963 15.34414690 12630
Epoch: 2026-06-20T00:06Z
TLE epoch observation values (Epoch: 2026-06-20T00:06:47.088Z)
Latitude
-0.00006°
Longitude
102.4316°
Altitude
463.566 km
Speed
7.636 km/s
True Right ascension
00h 49m 24s
True Declination
0° 00' 00"
Sunlit
Object was in daylight at epoch
Visualization orbit readout
Latitude
Unknown
Longitude
Unknown
Altitude
Unknown
Speed
Unknown
Apparent Right ascension
Unknown
Apparent Declination
Unknown
Sunlit
N/A
Visualization observer readout
Local Sidereal Time
07:21:13
Azimuth
Unknown
Elevation
Unknown
Doppler factor
Unknown
Orbital elements
Apogee altitude
463.633 km
Perigee altitude
462.2 km
Semi-major axis
6,841.054 km
Eccentricity
0.0001
Inclination
53.1593°
RAAN
12.3534°
Arg. of periapsis
90.5159°
True anomaly
269.5843°
Mean anomaly
269.5963°
Eccentric anomaly
269.5903°
Mean motion
3.83582 °/min
Orbital period
93.85 mins
BSTAR
0.00085547
Loading maneuver chart data...
Computing Atmospheric mass density...
Loading historical data...
Loading historical data...
Loading historical data...
Loading historical data...
Loading historical data...
Loading historical data...
Loading historical data...

Documentation

Showing up to 5 results
|